Retour au catalogue

SL-8 R/B

ActifLEO
NORAD 13386·ROCKET BODY·🇷🇺 Russia

Lancé Jul 21, 1982 depuis Plesetsk Cosmodrome

Loading…

Prochains Passages (prochaines 24 heures)

TLE

FraisSource: Space-Track

Époque: Sep 14, 2026, 08:20 UTC

1 13386U 82073J   26257.34751937  .00000055  00000-0  63295-3 0  9990
2 13386  74.0006 238.9922 0154169  33.3432 118.7243 12.21170768968351

Suivez SL-8 R/B en temps réel avec AllMySat

Download on the App Store